Location: Lac Echo
(45.9375°N, 75.4580°W)
Time: 14:24:58
(UTC-04:00)

Amateur Radio Satellites - All Passes

Search period start: 28 July 2014 13:54
Search period end: 29 July 2014 13:54
Location: Lac Echo, 45.9375°N, 75.4580°W

Satellite Date Start Highest point End Downlink Frequencies (MHz)
Time Altitude Azimuth
TMSAT-1 28 Jul 14:03:09 14:07:15 23° 61° (ENE) 14:11:22 436.925 FM
AO-27 28 Jul 14:07:03 14:12:16 74° 73° (ENE) 14:17:30 436.795 MHz FM
SO-50 28 Jul 14:07:39 14:11:59 47° 313° (NW) 14:16:26 436.795 FM
Uribyol 2 28 Jul 14:07:41 14:12:52 78° 73° (ENE) 14:18:05 436.500 FM
Gurwin Techsat 1B 28 Jul 14:25:54 14:30:57 47° 69° (ENE) 14:36:02 435.225 FM
UOSAT-12 28 Jul 14:32:15 14:36:19 31° 116° (ESE) 14:40:27 437.025 FM, 437.400 FM
Oscar 19 28 Jul 14:40:39 14:45:04 29° 265° (W) 14:49:31 437.125 CW, 437.150 USB
Saudisat 1A 28 Jul 14:41:11 14:43:36 14° 29° (NNE) 14:46:01 436.775 MHz
AO-7 28 Jul 14:53:03 15:00:11 33° 54° (NE) 15:07:19 29.400 - 29.500 MHz
KITSAT 1 28 Jul 14:57:05 15:05:05 59° 49° (NE) 15:13:00 435.175 FM
AO-Echo 28 Jul 15:01:18 15:06:15 39° 263° (W) 15:11:14 ?
Oscar 16 28 Jul 15:10:38 15:13:42 16° 271° (W) 15:16:48 437.025 USB, Beacon 2401.1428
Uosat F 28 Jul 15:19:57 15:24:07 27° 63° (ENE) 15:28:18 435.120 FM
ITAMSAT 1 28 Jul 15:28:54 15:33:01 23° 267° (W) 15:37:10 435.822 SSB
JAS-1B 28 Jul 15:40:55 15:49:33 52° 264° (W) 15:59:10 435.800 - 435.900 CW/SSB
TMSAT-1 28 Jul 15:41:37 15:46:49 55° 260° (W) 15:52:02 436.925 FM
AO-27 28 Jul 15:49:15 15:52:21 16° 271° (W) 15:55:27 436.795 MHz FM
RS-15 28 Jul 15:49:20 16:00:07 55° 319° (NW) 16:10:50 29.354 - 29.394 USB, Beacon 29.352 USB
Uribyol 2 28 Jul 15:50:04 15:52:57 15° 271° (W) 15:55:50 436.500 FM
SO-50 28 Jul 15:51:39 15:53:42 13° 335° (NNW) 15:55:47 436.795 FM
Gurwin Techsat 1B 28 Jul 16:06:45 16:11:08 26° 267° (W) 16:15:33 435.225 FM
OPAL 28 Jul 16:07:06 16:10:27 18° 93° (E) 16:13:49 ?
UOSAT-12 28 Jul 16:12:00 16:16:22 40° 315° (NW) 16:20:50 437.025 FM, 437.400 FM
Saudisat 1A 28 Jul 16:19:41 16:24:05 62° 50° (NE) 16:28:27 436.775 MHz
JAS-2 28 Jul 16:25:57 16:30:37 18° 53° (NE) 16:35:06 435.800 - 435.900 CW/SSB, 435.910 FM
AO-7 28 Jul 16:44:04 16:52:24 70° 254° (WSW) 17:00:47 29.400 - 29.500 MHz
KITSAT 1 28 Jul 16:52:55 17:00:11 39° 250° (WSW) 17:07:25 435.175 FM
Uosat F 28 Jul 16:57:54 17:02:42 44° 261° (W) 17:07:32 435.120 FM
JAS-1B 28 Jul 17:40:27 17:42:33 11° 286° (WNW) 17:44:41 435.800 - 435.900 CW/SSB
OPAL 28 Jul 17:44:45 17:49:47 66° 290° (WNW) 17:54:50 ?
UOSAT-12 28 Jul 17:55:59 17:57:50 12° 337° (NNW) 17:59:40 437.025 FM, 437.400 FM
Saudisat 1A 28 Jul 18:00:18 18:03:14 18° 249° (WSW) 18:06:08 436.775 MHz
Hamsat 28 Jul 18:05:32 18:09:42 78° 75° (ENE) 18:13:55 145.90 MHz
RS-15 28 Jul 18:06:20 18:15:32 29° 351° (N) 18:24:49 29.354 - 29.394 USB, Beacon 29.352 USB
JAS-2 28 Jul 18:06:52 18:14:37 72° 72° (ENE) 18:21:49 435.800 - 435.900 CW/SSB, 435.910 FM
STRAND 1 28 Jul 18:30:14 18:32:25 13° 88° (E) 18:34:35 ?
AO-7 28 Jul 18:42:37 18:46:42 14° 275° (W) 18:50:49 29.400 - 29.500 MHz
SO-67 28 Jul 18:52:44 18:55:57 36° 72° (ENE) 18:59:11 435.3500 MHz FM
SO-50 28 Jul 19:16:59 19:19:17 13° 26° (NNE) 19:21:35 436.795 FM
OPAL 28 Jul 19:26:23 19:27:45 11° 309° (NW) 19:29:06 ?
Hamsat 28 Jul 19:45:42 19:46:14 10° 273° (W) 19:46:47 145.90 MHz
JAS-2 28 Jul 19:53:47 20:00:05 27° 269° (W) 20:06:07 435.800 - 435.900 CW/SSB, 435.910 FM
HO-68 28 Jul 19:54:38 20:00:51 33° 59° (ENE) 20:07:04 435.675 MHz FM
STRAND 1 28 Jul 20:07:09 20:12:18 87° 285° (WNW) 20:17:24 ?
UKube-1 28 Jul 20:19:37 20:22:48 20° 63° (ENE) 20:26:01 145.840 MHz, 145.915 MHz
RS-15 28 Jul 20:22:05 20:31:59 36° 25° (NNE) 20:42:03 29.354 - 29.394 USB, Beacon 29.352 USB
SO-67 28 Jul 20:27:09 20:29:11 15° 269° (W) 20:31:14 435.3500 MHz FM
SO-50 28 Jul 20:56:22 21:00:58 48° 47° (NE) 21:05:37 436.795 FM
Oscar 11 28 Jul 21:04:38 21:08:16 27° 67° (ENE) 21:11:55 145.825 FM, Beacon 2401.500 USB
MaSat-1 28 Jul 21:06:45 21:10:12 26° 105° (ESE) 21:14:06 437.345 MHz
UOSAT-12 28 Jul 21:19:53 21:22:34 15° 27° (NNE) 21:25:14 437.025 FM, 437.400 FM
FUNcube-1 28 Jul 21:25:58 21:28:53 18° 63° (ENE) 21:31:46 145.950 - 145.970 MHz USB
HO-68 28 Jul 21:41:12 21:48:13 57° 258° (WSW) 21:55:18 435.675 MHz FM
STRAND 1 28 Jul 21:48:11 21:50:44 14° 304° (NW) 21:53:16 ?
UKube-1 28 Jul 21:54:30 21:58:43 46° 260° (W) 22:02:57 145.840 MHz, 145.915 MHz
RS-15 28 Jul 22:34:58 22:46:03 85° 54° (NE) 22:57:30 29.354 - 29.394 USB, Beacon 29.352 USB
SO-50 28 Jul 22:37:22 22:41:20 26° 246° (WSW) 22:45:19 436.795 FM
Oscar 11 28 Jul 22:40:33 22:44:23 31° 264° (W) 22:48:15 145.825 FM, Beacon 2401.500 USB
MaSat-1 28 Jul 22:43:18 22:47:19 39° 308° (NW) 22:51:54 437.345 MHz
UOSAT-12 28 Jul 22:59:03 23:03:45 56° 49° (NE) 23:08:22 437.025 FM, 437.400 FM
FUNcube-1 28 Jul 23:00:46 23:04:58 49° 260° (W) 23:09:06 145.950 - 145.970 MHz USB
PCSat 28 Jul 23:41:00 23:42:02 11° 101° (E) 23:43:03 145.825 MHz
ISS 29 Jul 00:31:15 00:34:32 61° 147° (SSE) 00:37:52 145.800 FM
UOSAT-12 29 Jul 00:39:57 00:43:32 22° 248° (WSW) 00:47:05 437.025 FM, 437.400 FM
Sapphire 29 Jul 00:46:14 00:51:09 37° 112° (ESE) 00:56:06 437.095 MHz 1200 baud AX-25 AFSK
RS-15 29 Jul 00:48:21 00:57:11 29° 256° (WSW) 01:06:18 29.354 - 29.394 USB, Beacon 29.352 USB
Oscar 19 29 Jul 01:12:29 01:13:46 11° 86° (E) 01:15:03 437.125 CW, 437.150 USB
PCSat 29 Jul 01:19:04 01:24:27 73° 119° (ESE) 01:29:53 145.825 MHz
AO-40 29 Jul 01:27:50 04:07:38 21° 130° (SE) 05:24:11 Beacon 2401.320
JAS-1B 29 Jul 01:38:03 01:40:58 12° 75° (ENE) 01:43:47 435.800 - 435.900 CW/SSB
Oscar 16 29 Jul 01:38:43 01:42:35 21° 92° (E) 01:46:25 437.025 USB, Beacon 2401.1428
ITAMSAT 1 29 Jul 02:00:10 02:02:56 14° 89° (E) 02:05:41 435.822 SSB
ISS 29 Jul 02:08:15 02:11:24 37° 346° (NNW) 02:14:35 145.800 FM
AO-27 29 Jul 02:18:27 02:22:25 22° 92° (E) 02:26:21 436.795 MHz FM
Uribyol 2 29 Jul 02:18:41 02:22:43 23° 93° (E) 02:26:43 436.500 FM
Sapphire 29 Jul 02:29:29 02:34:33 40° 312° (NW) 02:39:39 437.095 MHz 1200 baud AX-25 AFSK
Gurwin Techsat 1B 29 Jul 02:40:55 02:43:56 15° 88° (E) 02:46:56 435.225 FM
Oscar 19 29 Jul 02:48:42 02:53:54 82° 104° (ESE) 02:59:06 437.125 CW, 437.150 USB
PCSat 29 Jul 03:04:03 03:08:25 24° 320° (NW) 03:12:49 145.825 MHz
AO-Echo 29 Jul 03:05:57 03:11:01 59° 101° (E) 03:15:52 ?
Oscar 16 29 Jul 03:17:14 03:22:16 55° 289° (WNW) 03:27:19 437.025 USB, Beacon 2401.1428
OPAL 29 Jul 03:23:59 03:28:35 41° 65° (ENE) 03:33:14 ?
JAS-1B 29 Jul 03:24:31 03:33:53 57° 98° (E) 03:41:54 435.800 - 435.900 CW/SSB
ITAMSAT 1 29 Jul 03:37:51 03:43:04 79° 286° (WNW) 03:48:13 435.822 SSB
ISS 29 Jul 03:45:38 03:48:41 31° 7° (N) 03:51:44 145.800 FM
Oscar 10/S400 29 Jul 03:48:53 04:51:13 48° 211° (SSW) 11:16:15 145.825 - 145.975 CW/USB, Beacon 145.810 USB
TMSAT-1 29 Jul 03:54:53 04:00:02 49° 99° (E) 04:05:08 436.925 FM
AO-27 29 Jul 03:57:12 04:02:15 53° 290° (WNW) 04:07:16 436.795 MHz FM
Uribyol 2 29 Jul 03:57:29 04:02:29 51° 291° (WNW) 04:07:27 436.500 FM
Sapphire 29 Jul 04:17:34 04:19:33 12° 335° (NNW) 04:21:33 437.095 MHz 1200 baud AX-25 AFSK
Gurwin Techsat 1B 29 Jul 04:19:12 04:24:32 78° 286° (WNW) 04:29:49 435.225 FM
Oscar 19 29 Jul 04:29:32 04:32:36 16° 302° (WNW) 04:35:40 437.125 CW, 437.150 USB
AO-7 29 Jul 04:43:09 04:50:41 36° 96° (E) 04:58:06 29.400 - 29.500 MHz
AO-Echo 29 Jul 04:45:38 04:49:20 21° 300° (WNW) 04:52:56 ?
Uosat F 29 Jul 05:02:54 05:07:45 47° 100° (E) 05:12:34 435.120 FM
OPAL 29 Jul 05:03:27 05:07:37 27° 263° (W) 05:11:48 ?
JAS-1B 29 Jul 05:15:17 05:24:01 42° 301° (WNW) 05:31:45 435.800 - 435.900 CW/SSB
ITAMSAT 1 29 Jul 05:19:27 05:21:43 13° 305° (NW) 05:23:58 435.822 SSB
MaSat-1 29 Jul 05:22:08 05:26:07 21° 43° (NE) 05:30:02 437.345 MHz
ISS 29 Jul 05:22:22 05:25:45 75° 26° (NNE) 05:29:07 145.800 FM
KITSAT 1 29 Jul 05:29:37 05:35:58 26° 105° (ESE) 05:42:20 435.175 FM
TMSAT-1 29 Jul 05:35:23 05:39:40 26° 298° (WNW) 05:43:56 436.925 FM
STRAND 1 29 Jul 05:47:41 05:51:52 26° 63° (ENE) 05:56:02 ?
Hamsat 29 Jul 05:50:42 05:52:27 12° 88° (E) 05:54:12 145.90 MHz
Gurwin Techsat 1B 29 Jul 06:01:15 06:03:38 13° 305° (NW) 06:06:01 435.225 FM
AO-7 29 Jul 06:35:42 06:43:49 59° 297° (WNW) 06:51:53 29.400 - 29.500 MHz
Uosat F 29 Jul 06:42:15 06:46:16 25° 298° (WNW) 06:50:17 435.120 FM
MaSat-1 29 Jul 06:58:47 07:04:08 82° 243° (WSW) 07:09:14 437.345 MHz
ISS 29 Jul 06:59:41 07:02:09 19° 224° (SW) 07:04:37 145.800 FM
JAS-2 29 Jul 07:00:11 07:06:00 47° 97° (E) 07:11:13 435.800 - 435.900 CW/SSB, 435.910 FM
JAS-1B 29 Jul 07:08:06 07:11:49 13° 324° (NW) 07:15:25 435.800 - 435.900 CW/SSB
KITSAT 1 29 Jul 07:22:27 07:30:34 79° 306° (NW) 07:38:43 435.175 FM
Hamsat 29 Jul 07:24:36 07:28:54 71° 285° (WNW) 07:33:12 145.90 MHz
STRAND 1 29 Jul 07:25:50 07:30:47 47° 261° (W) 07:35:46 ?
SO-67 29 Jul 07:47:11 07:50:21 31° 97° (E) 07:53:29 435.3500 MHz FM
Sapphire 29 Jul 07:49:01 07:51:55 14° 29° (NNE) 07:54:49 437.095 MHz 1200 baud AX-25 AFSK
Saudisat 1A 29 Jul 08:07:29 08:11:52 66° 123° (ESE) 08:16:16 436.775 MHz
PCSat 29 Jul 08:21:53 08:26:02 22° 38° (NE) 08:30:10 145.825 MHz
AO-7 29 Jul 08:30:12 08:34:55 17° 319° (NW) 08:39:38 29.400 - 29.500 MHz
MaSat-1 29 Jul 08:38:30 08:40:35 12° 262° (W) 08:42:38 437.345 MHz
JAS-2 29 Jul 08:45:42 08:50:50 29° 300° (WNW) 08:55:31 435.800 - 435.900 CW/SSB, 435.910 FM
HO-68 29 Jul 09:06:42 09:12:25 25° 92° (E) 09:18:04 435.675 MHz FM
KITSAT 1 29 Jul 09:20:34 09:27:18 28° 330° (NNW) 09:34:04 435.175 FM
SO-67 29 Jul 09:20:48 09:23:13 18° 294° (WNW) 09:25:37 435.3500 MHz FM
Sapphire 29 Jul 09:31:19 09:36:38 53° 52° (NE) 09:41:56 437.095 MHz 1200 baud AX-25 AFSK
UKube-1 29 Jul 09:40:43 09:44:17 24° 95° (E) 09:47:49 145.840 MHz, 145.915 MHz
Saudisat 1A 29 Jul 09:48:24 09:51:52 22° 323° (NW) 09:55:21 436.775 MHz
PCSat 29 Jul 10:04:42 10:10:10 85° 239° (WSW) 10:15:35 145.825 MHz
Oscar 11 29 Jul 10:25:15 10:29:18 38° 97° (E) 10:33:21 145.825 FM, Beacon 2401.500 USB
FUNcube-1 29 Jul 10:47:44 10:51:11 25° 94° (E) 10:54:38 145.950 - 145.970 MHz USB
HO-68 29 Jul 10:53:36 11:00:42 70° 291° (WNW) 11:07:46 435.675 MHz FM
Sapphire 29 Jul 11:15:17 11:19:46 27° 251° (WSW) 11:24:13 437.095 MHz 1200 baud AX-25 AFSK
UKube-1 29 Jul 11:16:35 11:20:35 36° 292° (WNW) 11:24:32 145.840 MHz, 145.915 MHz
KITSAT 1 29 Jul 11:20:46 11:25:56 18° 360° (N) 11:31:05 435.175 FM
PCSat 29 Jul 11:50:17 11:52:44 13° 257° (WSW) 11:55:10 145.825 MHz
Oscar 11 29 Jul 12:01:52 12:05:18 23° 295° (WNW) 12:08:44 145.825 FM, Beacon 2401.500 USB
JAS-1B 29 Jul 12:23:41 12:29:42 19° 44° (NE) 12:35:51 435.800 - 435.900 CW/SSB
FUNcube-1 29 Jul 12:23:55 12:27:38 32° 291° (WNW) 12:31:22 145.950 - 145.970 MHz USB
Oscar 19 29 Jul 12:30:29 12:34:22 22° 61° (ENE) 12:38:15 437.125 CW, 437.150 USB
HO-68 29 Jul 12:43:01 12:47:11 17° 312° (NW) 12:51:22 435.675 MHz FM
AO-Echo 29 Jul 12:44:50 12:48:00 16° 58° (ENE) 12:51:10 ?
SO-50 29 Jul 12:53:52 12:58:15 58° 122° (ESE) 13:02:45 436.795 FM
Oscar 16 29 Jul 12:57:53 13:02:36 38° 67° (ENE) 13:07:20 437.025 USB, Beacon 2401.1428
RS-15 29 Jul 13:01:57 13:12:00 42° 109° (ESE) 13:21:52 29.354 - 29.394 USB, Beacon 29.352 USB
KITSAT 1 29 Jul 13:17:50 13:24:34 28° 30° (NNE) 13:31:15 435.175 FM
ITAMSAT 1 29 Jul 13:19:55 13:24:23 30° 64° (ENE) 13:28:51 435.822 SSB
AO-27 29 Jul 13:38:42 13:43:36 42° 68° (ENE) 13:48:30 436.795 MHz FM
Uribyol 2 29 Jul 13:38:43 13:43:37 44° 68° (ENE) 13:48:31 436.500 FM
TMSAT-1 29 Jul 13:41:07 13:44:12 16° 57° (ENE) 13:47:16 436.925 FM
